Change the Weather History Date:

Friday, November 18, 2011

  Actual Average (KHSV) Record (KHSV)
Temperature  
Mean Temperature 43 °F 52 °F  
Max Temperature 58 °F 63 °F 80 °F (1985)
Min Temperature 28 °F 41 °F 18 °F (1959)
Degree Days  
Heating Degree Days 22 13  
Month to date heating degree days 190  
Since 1 July heating degree days 341  
Cooling Degree Days 0 0  
Month to date cooling degree days 7  
Year to date cooling degree days 1947  
Moisture  
Dew Point 14 °F    
Average Humidity 40    
Maximum Humidity 84    
Minimum Humidity 9    
Precipitation  
Precipitation 0.00 in 0.17 in 1.79 in (1957)
Month to date precipitation 2.71  
Year to date precipitation 46.34  
Snow  
Snow 0.00 in - - ()
Month to date snowfall  
Since 1 July snowfall  
Since 1 September snowfall  
Snow Depth -    
Sea Level Pressure  
Sea Level Pressure 30.32 in    
Wind  
Wind Speed 3 mph (SE)    
Max Wind Speed 10 mph    
Max Gust Speed 18 mph    
Visibility 10 miles    
Events      
T = Trace of Precipitation, MM = Missing Value Source: NWS Daily Summary

Daily Weather History Graph

Daily Weather History Graph

Search for Another Location

Airport or City:

Trip Planner

Search our weather history database for the weather conditions in past years. The results will help you decide how hot, cold, wet, or windy it might be!

Date:

Astronomy

Nov. 18, 2011 Rise Set
Actual Time 6:23 AM CST 4:41 PM CST
Civil Twilight 5:56 AM CST 5:08 PM CST
Nautical Twilight 5:25 AM CST 5:38 PM CST
Astronomical Twilight 4:55 AM CST 6:08 PM CST
Moon No Moon Rise 12:10 PM CST (11/18)
Length of Visible Light 11h 12m
Length of Day
10h 18m
Waning Gibbous, 49% of the Moon is Illuminated
Nov 18
Waning Gibbous
Nov 25
New
Dec 2
First Quarter
Dec 10
Full
Dec 17
Last Quarter

Hourly Weather History & Observations

Time (CST) Temp. Windchill Dew Point Humidity Pressure Visibility Wind Dir Wind Speed Gust Speed Precip Events Conditions
12:15 AM 30.7 °F - 23.2 °F 74% 30.35 in 10.0 mi Calm Calm - N/A   Clear
12:35 AM 30.7 °F - 24.4 °F 77% 30.36 in 10.0 mi Calm Calm - N/A   Clear
12:55 AM 30.7 °F - 24.8 °F 79% 30.36 in 10.0 mi Calm Calm - N/A   Clear
1:15 AM 30.4 °F - 25.0 °F 80% 30.37 in 10.0 mi Calm Calm - N/A   Clear
1:35 AM 29.1 °F - 24.3 °F 82% 30.37 in 10.0 mi Calm Calm - N/A   Clear
1:55 AM 28.6 °F - 24.1 °F 83% 30.37 in 10.0 mi Calm Calm - N/A   Clear
2:15 AM 28.2 °F - 23.9 °F 84% 30.38 in 10.0 mi Calm Calm - N/A   Clear
2:35 AM 28.2 °F - 23.7 °F 83% 30.38 in 10.0 mi Calm Calm - N/A   Clear
2:55 AM 28.2 °F - 23.9 °F 84% 30.38 in 10.0 mi Calm Calm - N/A   Clear
3:15 AM 28.2 °F - 23.9 °F 84% 30.37 in 10.0 mi Calm Calm - N/A   Clear
3:35 AM 28.2 °F - 23.9 °F 84% 30.37 in 10.0 mi Calm Calm - N/A   Clear
3:55 AM 28.2 °F - 23.9 °F 84% 30.37 in 10.0 mi Calm Calm - N/A   Clear
4:15 AM 28.2 °F - 23.7 °F 83% 30.37 in 10.0 mi Calm Calm - N/A   Clear
4:35 AM 28.2 °F - 23.5 °F 83% 30.37 in 10.0 mi Calm Calm - N/A   Clear
4:55 AM 28.2 °F - 23.9 °F 84% 30.37 in 10.0 mi Calm Calm - N/A   Clear
5:35 AM 28.2 °F - 23.7 °F 83% 30.37 in 10.0 mi Calm Calm - N/A   Clear
5:55 AM 28.2 °F - 23.5 °F 83% 30.37 in 10.0 mi Calm Calm - N/A   Clear
6:35 AM 29.7 °F - 22.3 °F 74% 30.38 in 10.0 mi Calm Calm - N/A   Clear
6:55 AM 34.0 °F 28.0 °F 17.4 °F 51% 30.38 in 10.0 mi East 6.9 mph - N/A   Clear
7:15 AM 35.6 °F 29.9 °F 13.6 °F 41% 30.38 in 10.0 mi East 6.9 mph - N/A   Clear
7:35 AM 37.2 °F 32.6 °F 15.1 °F 40% 30.39 in 10.0 mi East 5.8 mph - N/A   Clear
7:55 AM 38.7 °F 33.6 °F 16.0 °F 40% 30.39 in 10.0 mi East 6.9 mph - N/A   Clear
8:15 AM 39.9 °F 35.1 °F 16.0 °F 38% 30.39 in 10.0 mi SE 6.9 mph - N/A   Clear
8:35 AM 41.2 °F 35.5 °F 13.8 °F 33% 30.40 in 10.0 mi ESE 9.2 mph 17.3 mph N/A   Clear
8:55 AM 43.5 °F 37.9 °F 10.6 °F 26% 30.40 in 10.0 mi SE 10.4 mph 17.3 mph N/A   Clear
9:35 AM 48.2 °F - 10.2 °F 22% 30.40 in 10.0 mi SSE 8.1 mph - N/A   Clear
9:55 AM 48.2 °F - 9.1 °F 21% 30.40 in 10.0 mi SSE 9.2 mph - N/A   Clear
10:15 AM 48.4 °F - 8.2 °F 20% 30.39 in 10.0 mi SE 6.9 mph 16.1 mph N/A   Clear
10:55 AM 51.6 °F - 8.1 °F 17% 30.38 in 10.0 mi SE 8.1 mph - N/A   Clear
11:15 AM 53.1 °F - 6.3 °F 15% 30.36 in 10.0 mi SE 10.4 mph - N/A   Clear
11:35 AM 53.1 °F - 2.3 °F 13% 30.35 in 10.0 mi SSE 8.1 mph 18.4 mph N/A   Clear
11:55 AM 54.0 °F - 2.1 °F 12% 30.34 in 10.0 mi SSE 10.4 mph 16.1 mph N/A   Clear
12:15 PM 55.4 °F - 2.5 °F 12% 30.33 in 10.0 mi SE 8.1 mph 16.1 mph N/A   Clear
12:35 PM 55.4 °F - 2.5 °F 12% 30.32 in 10.0 mi South 8.1 mph - N/A   Clear
12:55 PM 55.8 °F - 1.9 °F 11% 30.30 in 10.0 mi SE 4.6 mph - N/A   Clear
1:35 PM 57.7 °F - 0.3 °F 10% 30.29 in 10.0 mi SSE 6.9 mph - N/A   Clear
1:55 PM 58.1 °F - -0.8 °F 9% 30.29 in 10.0 mi SSE 6.9 mph - N/A   Clear
2:15 PM 58.1 °F - 0.5 °F 10% 30.28 in 10.0 mi SSE 5.8 mph - N/A   Clear
2:55 PM 58.1 °F - 0.5 °F 10% 30.26 in 10.0 mi SE 6.9 mph - N/A   Clear
3:15 PM 58.1 °F - 2.5 °F 11% 30.26 in 10.0 mi SSE 6.9 mph - N/A   Clear
3:55 PM 57.9 °F - 4.6 °F 12% 30.26 in 10.0 mi SSE 5.8 mph - N/A   Clear
4:15 PM 55.9 °F - 4.8 °F 13% 30.26 in 10.0 mi SE 5.8 mph - N/A   Clear
4:35 PM 54.3 °F - 7.3 °F 15% 30.25 in 10.0 mi Calm Calm - N/A   Clear
4:55 PM 53.1 °F - 9.5 °F 17% 30.25 in 10.0 mi Calm Calm - N/A   Clear
5:15 PM 53.1 °F - 11.7 °F 19% 30.25 in 10.0 mi Calm Calm - N/A   Clear
5:35 PM 53.1 °F - 13.1 °F 20% 30.25 in 10.0 mi SE 6.9 mph - N/A   Clear
5:55 PM 52.0 °F - 12.7 °F 21% 30.25 in 10.0 mi SE 5.8 mph - N/A   Clear
6:15 PM 50.5 °F - 13.1 °F 22% 30.25 in 10.0 mi Calm Calm - N/A   Clear
6:35 PM 50.5 °F - 14.4 °F 24% 30.26 in 10.0 mi SE 3.5 mph - N/A   Clear
6:55 PM 50.5 °F - 14.9 °F 24% 30.26 in 10.0 mi SE 5.8 mph - N/A   Clear
7:15 PM 50.2 °F - 15.3 °F 25% 30.26 in 10.0 mi SSE 6.9 mph - N/A   Clear
7:35 PM 49.3 °F - 15.4 °F 26% 30.26 in 10.0 mi Calm Calm - N/A   Clear
7:55 PM 48.4 °F - 15.4 °F 27% 30.26 in 10.0 mi SSE 6.9 mph - N/A   Clear
8:15 PM 48.2 °F - 15.3 °F 27% 30.26 in 10.0 mi SSE 5.8 mph - N/A   Clear
8:55 PM 48.2 °F - 16.5 °F 28% 30.26 in 10.0 mi SSE 5.8 mph - N/A   Clear
9:15 PM 48.2 °F - 16.7 °F 29% 30.27 in 10.0 mi SE 5.8 mph - N/A   Clear
9:35 PM 48.2 °F - 17.4 °F 29% 30.27 in 10.0 mi Calm Calm - N/A   Clear
9:55 PM 48.2 °F - 17.6 °F 30% 30.27 in 10.0 mi SE 4.6 mph - N/A   Clear
10:15 PM 48.2 °F - 16.7 °F 29% 30.27 in 10.0 mi Calm Calm - N/A   Clear
10:35 PM 48.2 °F - 16.2 °F 28% 30.27 in 10.0 mi SE 8.1 mph - N/A   Clear
11:15 PM 47.7 °F - 16.2 °F 28% 30.27 in 10.0 mi SE 8.1 mph - N/A   Clear
11:35 PM 45.7 °F 41.5 °F 14.5 °F 29% 30.27 in 10.0 mi SE 8.1 mph - N/A   Clear
11:55 PM 45.5 °F 40.8 °F 14.0 °F 28% 30.27 in 10.0 mi SE 9.2 mph - N/A   Clear